This is the latest recevied weather packets stored in our database for station/object DB0MOD. If no packets are shown the sender has not sent any weather packets the latest 10 day(s).
| Time | Temp. | Humidity | Pressure | Rain* | Wind** | Luminosity | Snow |
|---|---|---|---|---|---|---|---|
| 1777477762 | 18.89° C | 33% | 1019.7 hPa | 0 mm | - | - | - |
| 1777477462 | 19.44° C | 34% | 1019.7 hPa | 0 mm | - | - | - |
| 1777477163 | 18.89° C | 36% | 1019.7 hPa | 0 mm | - | - | - |
| 1777476863 | 17.78° C | 37% | 1019.6 hPa | 0 mm | - | - | - |
| 1777476563 | 17.22° C | 37% | 1019.6 hPa | 0 mm | - | - | - |
| 1777476263 | 16.67° C | 39% | 1019.5 hPa | 0 mm | - | - | - |
| 1777475962 | 16.11° C | 39% | 1019.6 hPa | 0 mm | - | - | - |
| 1777475662 | 16.11° C | 40% | 1019.5 hPa | 0 mm | - | - | - |
| 1777475363 | 15.56° C | 40% | 1019.5 hPa | 0 mm | - | - | - |
| 1777475063 | 15.56° C | 40% | 1019.5 hPa | 0 mm | - | - | - |
| 1777474763 | 15.56° C | 40% | 1019.4 hPa | 0 mm | - | - | - |
| 1777474463 | 15.56° C | 41% | 1019.5 hPa | 0 mm | - | - | - |
| 1777473863 | 15.56° C | 40% | 1019.4 hPa | 0 mm | - | - | - |
| 1777473563 | 15.56° C | 41% | 1019.5 hPa | 0 mm | - | - | - |
| 1777472963 | 15.56° C | 41% | 1019.5 hPa | 0 mm | - | - | - |
| 1777472663 | 15.56° C | 41% | 1019.3 hPa | 0 mm | - | - | - |
| 1777472363 | 15.56° C | 41% | 1019.5 hPa | 0 mm | - | - | - |
| 1777472063 | 16.11° C | 41% | 1019.2 hPa | 0 mm | - | - | - |
| 1777471763 | 16.11° C | 41% | 1019.4 hPa | 0 mm | - | - | - |
| 1777471463 | 16.11° C | 41% | 1019.4 hPa | 0 mm | - | - | - |
| 1777471163 | 16.11° C | 41% | 1019.4 hPa | 0 mm | - | - | - |
| 1777470863 | 16.11° C | 41% | 1019.2 hPa | 0 mm | - | - | - |
| 1777470563 | 16.11° C | 42% | 1019.5 hPa | 0 mm | - | - | - |
| 1777470263 | 16.11° C | 42% | 1019.5 hPa | 0 mm | - | - | - |
| 1777469963 | 16.11° C | 42% | 1019.4 hPa | 0 mm | - | - | - |
* Rain latest hour (hover to see other rain measurements)
** Current wind speed in m/s (hover to see current wind gust speed)